Date String (YYYY-MM-DD hh:mm:ss) UTC,Instrument flags,Ambient pressure (hPa),Sample flow (lpm),Bypass flow (lpm),Sample temperature (°C),Ambient temperature (°C),ASC tube jacket temperature (°C),LED temperature (°C),Box temperature (°C),Sample RH (%),Span deviation,Mass concentration (μg/m³),Mass concentration (μg/m³),Mass concentration (μg/m³)
DateTimeUTC,F1_M11,P_M11,Q1_M11,Q2_M11,T1_M11,T2_M11,T3_M11,T4_M11,T5_M11,U1_M11,ZSPAN_M11,X0_M11,X2_M11,X1_M11
2022-01-15 12:00:00,,0835.1,5.00,0.00,21.6,22.5,00.0,30.6,23.5,08.6,0000.0,0001.96,0001.39,0001.27
2022-01-15 12:01:00,,0835.1,4.98,0.00,21.8,22.8,00.0,30.7,23.7,08.5,0000.0,0001.97,0001.40,0001.27
2022-01-15 12:02:00,,0835.0,4.99,0.00,21.8,22.4,00.0,30.7,23.5,08.5,0000.0,0002.05,0001.40,0001.27
2022-01-15 12:03:00,,0835.0,5.00,0.00,21.7,22.0,00.0,30.7,23.3,08.5,0000.0,0002.07,0001.41,0001.26
2022-01-15 12:04:00,,0835.0,5.01,0.00,21.6,21.7,00.0,30.7,23.2,08.5,0000.0,0002.07,0001.42,0001.26
2022-01-15 12:05:00,,0835.0,5.00,0.00,21.5,21.4,00.0,30.6,23.1,08.6,0000.0,0002.10,0001.43,0001.27
2022-01-15 12:06:00,,0835.0,5.00,0.00,21.5,21.2,00.0,30.6,23.0,08.6,0000.0,0002.15,0001.44,0001.27
2022-01-15 12:07:00,,0835.0,5.00,0.00,21.4,20.9,00.0,30.6,22.8,08.7,0000.0,0002.15,0001.44,0001.28
2022-01-15 12:08:00,,0835.0,4.99,0.00,21.3,20.7,00.0,30.5,22.7,08.7,0000.0,0002.11,0001.45,0001.28
2022-01-15 12:09:00,,0835.0,5.00,0.00,21.3,20.9,00.0,30.5,22.7,08.7,0000.0,0002.05,0001.44,0001.29
2022-01-15 12:10:00,,0834.9,5.00,0.00,21.4,21.6,00.0,30.5,23.1,08.7,0000.0,0002.02,0001.44,0001.30
2022-01-15 12:11:00,,0835.0,5.00,0.00,21.5,22.4,00.0,30.6,23.4,08.6,0000.0,0002.05,0001.46,0001.31
2022-01-15 12:12:00,,0834.9,5.01,0.00,21.7,22.9,00.0,30.6,23.7,08.6,0000.0,0002.02,0001.45,0001.32
2022-01-15 12:13:00,,0835.0,5.00,0.00,21.7,22.5,00.0,30.6,23.6,08.5,0000.0,0001.98,0001.46,0001.33
2022-01-15 12:14:00,,0835.0,4.99,0.00,21.7,22.1,00.0,30.6,23.3,08.6,0000.0,0001.94,0001.47,0001.34
2022-01-15 12:15:00,,0834.9,5.00,0.00,21.6,21.7,00.0,30.6,23.1,08.6,0000.0,0001.88,0001.44,0001.34
2022-01-15 12:16:00,,0834.9,5.01,0.00,21.5,21.3,00.0,30.6,22.9,08.7,0000.0,0001.85,0001.46,0001.36
2022-01-15 12:17:00,,0834.9,5.00,0.00,21.4,21.0,00.0,30.5,22.8,08.7,0000.0,0001.82,0001.47,0001.37
2022-01-15 12:18:00,,0834.8,5.00,0.00,21.3,20.8,00.0,30.5,22.7,08.8,0000.0,0001.85,0001.48,0001.37
2022-01-15 12:19:00,,0834.8,5.00,0.00,21.2,20.6,00.0,30.5,22.5,08.8,0000.0,0001.91,0001.50,0001.38
2022-01-15 12:20:00,,0834.9,5.01,0.00,21.2,21.1,00.0,30.5,22.7,08.8,0000.0,0001.87,0001.51,0001.39
2022-01-15 12:21:00,,0834.8,4.99,0.00,21.4,21.9,00.0,30.5,23.1,08.8,0000.0,0001.95,0001.55,0001.40
2022-01-15 12:22:00,,0834.9,5.01,0.00,21.6,22.7,00.0,30.5,23.5,08.7,0000.0,0002.02,0001.58,0001.41
2022-01-15 12:23:00,,0834.9,5.00,0.00,21.7,22.7,00.0,30.6,23.6,08.6,0000.0,0002.13,0001.60,0001.41
2022-01-15 12:24:00,,0834.9,4.99,0.00,21.7,22.3,00.0,30.6,23.4,08.6,0000.0,0002.14,0001.61,0001.42
2022-01-15 12:25:00,,0834.9,4.99,0.00,21.6,21.9,00.0,30.6,23.2,08.6,0000.0,0002.11,0001.61,0001.43
2022-01-15 12:26:00,,0834.9,5.00,0.00,21.5,21.6,00.0,30.6,23.0,08.7,0000.0,0002.14,0001.62,0001.43
2022-01-15 12:27:00,,0834.9,5.00,0.00,21.4,21.2,00.0,30.5,22.9,08.7,0000.0,0002.13,0001.62,0001.42
2022-01-15 12:28:00,,0834.9,4.99,0.00,21.3,21.0,00.0,30.5,22.7,08.8,0000.0,0002.14,0001.62,0001.42
2022-01-15 12:29:00,,0834.9,5.00,0.00,21.2,20.8,00.0,30.5,22.6,08.8,0000.0,0002.18,0001.64,0001.43
2022-01-15 12:30:00,,0834.9,5.02,0.00,21.2,20.7,00.0,30.4,22.5,08.8,0000.0,0002.12,0001.62,0001.43
2022-01-15 12:31:00,,0834.9,4.99,0.00,21.2,21.3,00.0,30.5,22.8,08.8,0000.0,0002.09,0001.60,0001.43
2022-01-15 12:32:00,,0835.0,5.00,0.00,21.4,22.2,00.0,30.5,23.2,08.7,0000.0,0002.00,0001.56,0001.43
2022-01-15 12:33:00,,0834.9,4.99,0.00,21.6,22.9,00.0,30.5,23.5,08.6,0000.0,0002.18,0001.52,0001.40
2022-01-15 12:34:00,,0835.0,5.00,0.00,21.7,22.6,00.0,30.6,23.5,08.6,0000.0,0002.38,0001.50,0001.40
2022-01-15 12:35:00,,0835.0,5.00,0.00,21.6,22.2,00.0,30.6,23.3,08.6,0000.0,0002.33,0001.48,0001.39
2022-01-15 12:36:00,,0834.9,5.00,0.00,21.5,21.8,00.0,30.5,23.0,08.6,0000.0,0002.31,0001.46,0001.37
2022-01-15 12:37:00,,0835.0,5.01,0.00,21.4,21.4,00.0,30.5,22.8,08.6,0000.0,0002.26,0001.44,0001.36
2022-01-15 12:38:00,,0835.0,5.00,0.00,21.3,21.1,00.0,30.5,22.7,08.7,0000.0,0002.27,0001.42,0001.34
2022-01-15 12:39:00,,0834.9,4.99,0.00,21.2,20.8,00.0,30.5,22.6,08.7,0000.0,0002.35,0001.41,0001.33
2022-01-15 12:40:00,,0835.0,4.99,0.00,21.1,20.6,00.0,30.4,22.5,08.8,0000.0,0002.32,0001.39,0001.32
2022-01-15 12:41:00,,0835.0,5.00,0.00,21.1,20.7,00.0,30.4,22.5,08.8,0000.0,0002.28,0001.38,0001.31
2022-01-15 12:42:00,,0835.0,5.00,0.00,21.2,21.5,00.0,30.4,22.9,08.7,0000.0,0002.26,0001.37,0001.30
2022-01-15 12:43:00,,0835.0,5.00,0.00,21.4,22.3,00.0,30.4,23.2,08.6,0000.0,0002.32,0001.38,0001.29
2022-01-15 12:44:00,,0835.0,5.01,0.00,21.6,22.8,00.0,30.5,23.5,08.5,0000.0,0002.17,0001.40,0001.29
2022-01-15 12:45:00,,0835.0,5.00,0.00,21.6,22.4,00.0,30.5,23.3,08.5,0000.0,0001.81,0001.39,0001.28
2022-01-15 12:46:00,,0835.0,4.99,0.00,21.5,21.9,00.0,30.5,23.1,08.5,0000.0,0001.85,0001.41,0001.26
2022-01-15 12:47:00,,0835.0,5.01,0.00,21.4,21.6,00.0,30.5,22.9,08.6,0000.0,0001.91,0001.42,0001.26
2022-01-15 12:48:00,,0834.9,5.00,0.00,21.3,21.2,00.0,30.4,22.7,08.6,0000.0,0002.04,0001.44,0001.26
2022-01-15 12:49:00,,0835.0,4.99,0.00,21.2,20.9,00.0,30.4,22.5,08.6,0000.0,0002.08,0001.45,0001.27
2022-01-15 12:50:00,,0835.0,5.00,0.00,21.1,20.7,00.0,30.4,22.4,08.7,0000.0,0002.05,0001.47,0001.27
2022-01-15 12:51:00,,0835.0,5.01,0.00,21.0,20.7,00.0,30.3,22.4,08.8,0000.0,0002.00,0001.46,0001.27
2022-01-15 12:52:00,,0835.0,4.99,0.00,21.2,21.5,00.0,30.4,22.8,08.8,0000.0,0001.98,0001.46,0001.26
2022-01-15 12:53:00,,0835.0,5.02,0.00,21.3,22.3,00.0,30.4,23.2,08.7,0000.0,0001.99,0001.45,0001.25
2022-01-15 12:54:00,,0835.0,4.98,0.00,21.5,22.8,00.0,30.4,23.4,08.6,0000.0,0002.00,0001.46,0001.26
2022-01-15 12:55:00,,0835.0,5.00,0.00,21.6,22.4,00.0,30.5,23.3,08.6,0000.0,0001.99,0001.47,0001.27
2022-01-15 12:56:00,,0835.0,4.99,0.00,21.5,22.0,00.0,30.5,23.1,08.6,0000.0,0001.98,0001.47,0001.28
2022-01-15 12:57:00,,0835.0,5.01,0.00,21.4,21.6,00.0,30.5,22.9,08.6,0000.0,0001.96,0001.46,0001.30
2022-01-15 12:58:00,,0835.0,5.00,0.00,21.3,21.3,00.0,30.4,22.8,08.7,0000.0,0001.96,0001.46,0001.31
2022-01-15 12:59:00,,0835.0,5.01,0.00,21.2,21.0,00.0,30.4,22.6,08.8,0000.0,0001.96,0001.47,0001.31
